Wenatchee, WA

10:50 AM PDT on July 25, 2017 (GMT -0700)
Pangborn Memorial

Weather History for KEAT - October, 2012

Change the Weather History Date:

Saturday, October 27, 2012

  Actual Average Record
Temperature  
Mean Temperature 40 °F 41 °F  
Max Temperature 43 °F 51 °F 71 °F (2003)
Min Temperature 36 °F 32 °F 26 °F (1970)
Degree Days  
Heating Degree Days 25 24  
Month to date heating degree days 513 501  
Since 1 July heating degree days 742 857  
Cooling Degree Days 0 0  
Month to date cooling degree days 0 0  
Year to date cooling degree days 294 249  
Moisture  
Dew Point 37 °F    
Average Humidity 84    
Maximum Humidity 93    
Minimum Humidity 79    
Precipitation  
Precipitation 0.16 in 0.05 in 0.45 in (2016)
Month to date precipitation 1.25 1.05  
Year to date precipitation 16.45 12.10  
Snow  
Snow 0.00 in 0.00 in - ()
Month to date snowfall T 0.1  
Since 1 July snowfall T 0.1  
Since 1 September snowfall T 0.1  
Snow Depth 0.00 in    
Sea Level Pressure  
Sea Level Pressure 29.97 in    
Wind  
Wind Speed 1 mph (WNW)    
Max Wind Speed 7 mph    
Max Gust Speed -    
Visibility 7 miles    
Events Rain    
T = Trace of Precipitation, MM = Missing Value Source: NWS Daily Summary

Daily Weather History Graph

Daily Weather History Graph

Search for Another Location

Airport or City:

Trip Planner

Search our weather history database for the weather conditions in past years. The results will help you decide how hot, cold, wet, or windy it might be!

Date:

Astronomy

Oct. 27, 2012 Rise Set
Actual Time 7:37 AM PDT 5:50 PM PDT
Civil Twilight 7:06 AM PDT 6:22 PM PDT
Nautical Twilight 6:30 AM PDT 6:58 PM PDT
Astronomical Twilight 5:54 AM PDT 7:33 PM PDT
Moon 4:43 PM PDT (10/27) 5:32 AM PDT (10/27)
Length of Visible Light 11h 16m
Length of Day
10h 12m
Waxing Gibbous, 96% of the Moon is Illuminated
Oct 27
Waxing Gibbous
Oct 29
Full
Nov 6
Last Quarter
Nov 13
New
Nov 20
First Quarter

Hourly Weather History & Observations

Time (PDT) Temp. Windchill Dew Point Humidity Pressure Visibility Wind Dir Wind Speed Gust Speed Precip Events Conditions
12:55 AM 39.9 °F - 36.0 °F 86% 30.09 in 10.0 mi Calm Calm - N/A   Overcast
1:55 AM 39.9 °F - 36.0 °F 86% 30.08 in 10.0 mi Calm Calm - N/A   Overcast
2:39 AM 39.2 °F - 35.6 °F 87% 30.06 in 10.0 mi Calm Calm - N/A   Overcast
2:55 AM 39.9 °F - 36.0 °F 86% 30.08 in 10.0 mi Calm Calm - N/A   Overcast
3:55 AM 39.9 °F - 34.0 °F 79% 30.07 in 10.0 mi Calm Calm - N/A   Overcast
4:55 AM 39.9 °F - 34.0 °F 79% 30.06 in 10.0 mi Calm Calm - N/A   Overcast
5:55 AM 39.9 °F - 34.0 °F 79% 30.07 in 10.0 mi Calm Calm - N/A   Overcast
7:55 AM 39.9 °F - 34.0 °F 79% 30.07 in 10.0 mi Calm Calm - N/A   Overcast
8:55 AM 39.9 °F - 35.1 °F 83% 30.07 in 10.0 mi Calm Calm - N/A   Overcast
9:55 AM 39.9 °F - 34.0 °F 79% 30.07 in 10.0 mi Calm Calm - N/A   Overcast
10:55 AM 41.0 °F 39.0 °F 35.1 °F 79% 30.07 in 9.0 mi ESE 3.5 mph - N/A   Overcast
11:30 AM 41.0 °F 39.0 °F 35.6 °F 81% 30.03 in 8.0 mi ESE 3.5 mph - 0.00 in Rain Light Rain
11:55 AM 41.0 °F - 36.0 °F 82% 30.05 in 8.0 mi Calm Calm - 0.00 in   Overcast
12:42 PM 41.0 °F - 37.4 °F 87% 30.03 in 4.0 mi Calm Calm - 0.03 in Rain Light Rain
12:55 PM 41.0 °F - 37.0 °F 86% 30.05 in 5.0 mi Calm Calm - 0.03 in Rain Light Rain
1:20 PM 41.0 °F - 37.4 °F 87% 30.01 in 4.0 mi Calm Calm - 0.02 in Rain Light Rain
1:27 PM 41.0 °F 39.0 °F 37.4 °F 87% 30.01 in 5.0 mi SSW 3.5 mph - 0.02 in Rain Light Rain
1:55 PM 42.1 °F - 37.9 °F 85% 30.01 in 7.0 mi Calm Calm - 0.02 in Rain Light Rain
2:26 PM 42.8 °F - 37.4 °F 81% 29.98 in 10.0 mi Calm Calm - 0.00 in   Overcast
2:55 PM 43.0 °F 41.3 °F 37.9 °F 82% 29.99 in 9.0 mi NW 3.5 mph - 0.00 in   Overcast
3:55 PM 43.0 °F 41.3 °F 37.0 °F 80% 29.98 in 9.0 mi North 3.5 mph - N/A   Overcast
4:26 PM 42.8 °F - 37.4 °F 81% 29.95 in 9.0 mi Calm Calm - N/A   Overcast
4:55 PM 43.0 °F - 37.9 °F 82% 29.98 in 6.0 mi Calm Calm - N/A   Haze
5:10 PM 42.8 °F - 37.4 °F 81% 29.95 in 6.0 mi Calm Calm - N/A   Haze
5:53 PM 42.8 °F - 39.2 °F 87% 29.95 in 5.0 mi Calm Calm - 0.00 in   Overcast
5:55 PM 43.0 °F - 39.0 °F 86% 29.97 in 5.0 mi Calm Calm - 0.00 in   Overcast
6:55 PM 42.1 °F - 39.0 °F 89% 29.92 in 4.0 mi Calm Calm - 0.05 in Rain Light Rain
7:13 PM 42.8 °F - 39.2 °F 87% 29.89 in 3.0 mi Calm Calm - 0.06 in Rain Rain
7:55 PM 42.1 °F - 39.0 °F 89% 29.90 in 5.0 mi Calm Calm - 0.09 in   Overcast
8:06 PM 42.8 °F - 39.2 °F 87% 29.88 in 4.0 mi Calm Calm - N/A   Overcast
8:25 PM 42.8 °F 39.3 °F 39.2 °F 87% 29.89 in 4.0 mi NW 5.8 mph - N/A   Overcast
8:55 PM 42.1 °F 39.2 °F 39.0 °F 89% 29.91 in 6.0 mi West 4.6 mph - 0.02 in Rain Light Rain
9:03 PM 42.8 °F 38.6 °F 39.2 °F 87% 29.89 in 4.0 mi West 6.9 mph - 0.00 in Rain Light Rain
9:27 PM 42.8 °F 39.3 °F 39.2 °F 87% 29.88 in 1.8 mi West 5.8 mph - 0.01 in Rain Light Rain
9:43 PM 42.8 °F 40.1 °F 39.2 °F 87% 29.87 in 3.0 mi WNW 4.6 mph - 0.01 in Rain Light Rain
9:55 PM 41.0 °F 39.0 °F 39.0 °F 93% 29.88 in 5.0 mi WNW 3.5 mph - 0.01 in   Overcast
10:07 PM 42.8 °F 39.3 °F 39.2 °F 87% 29.87 in 6.0 mi West 5.8 mph - N/A   Overcast
10:39 PM 42.8 °F 39.3 °F 37.4 °F 81% 29.86 in 9.0 mi NW 5.8 mph - N/A   Overcast
10:55 PM 42.1 °F 39.2 °F 37.9 °F 85% 29.87 in 10.0 mi North 4.6 mph - N/A   Overcast
11:27 PM 42.8 °F 41.1 °F 37.4 °F 81% 29.85 in 10.0 mi WSW 3.5 mph - N/A   Overcast
11:55 PM 42.1 °F 40.2 °F 37.9 °F 85% 29.86 in 10.0 mi WSW 3.5 mph - N/A   Overcast